Home   Weather   Alexandroupoli   Past weeks

Flag for Greece Past Weather in Alexandroupoli, Greece — Yesterday and Last 2 Weeks

Now
34 °F

Clear.


Feels Like: 30 °F
Forecast: 26 / 48 °F
Wind: 5 mph from East

Location: Alexandroupoli Airport

Current Time: Dec 5, 2016 at 2:30:20 am

Latest Report: Dec 4, 2016 at 10:50 pm


Visibility: 10 mi

Pressure: 30.42 "Hg

Humidity: 56%

Dew Point: 19 °F

Location of AlexandroupoliLocation

Past Weather in Alexandroupoli — Graph

°F

Alexandroupoli Temperature Yesterday

Maximum temperature yesterday: 50 °F (at 1:20 pm)
Minimum temperature yesterday: 32 °F (at 7:50 am)
Average temperature yesterday: 43 °F

High & Low Weather Summary for the Past Weeks

 TemperatureHumidityPressure
High63 °F (Nov 20, 1:50 pm)94% (Nov 27, 7:50 am)30.42 "Hg (Nov 27, 7:50 am)
Low21 °F (Dec 1, 6:50 am)29% (Dec 4, 1:50 pm)29.74 "Hg (Dec 2, 2:50 pm)
Average47 °F68%30.14 "Hg
* Reported Nov 19 10:20 pm — Dec 4 10:50 pm, Alexandroupoli, Weather by CustomWeather, © 2016

Note: Actual official high and low records may vary slightly from our data, if they occured in-between our weather recording intervals... More about our weather records

Advertising

Alexandroupoli Weather History for the Previous 24 Hours

Scroll right to see more
 ConditionsComfort  
Time TempWeatherWind HumidityBarometerVisibility
10:50 pm
Sun, Dec 4
34 °FClear.5 mph56%30.42 "Hg10 mi
10:20 pm37 °FClear.3 mph52%30.42 "Hg10 mi
9:50 pm37 °FClear.3 mph52%30.42 "Hg10 mi
9:20 pm39 °FClear.3 mph42%30.42 "Hg10 mi
8:50 pm39 °FClear.8 mph42%30.42 "Hg10 mi
8:20 pm39 °FClear.8 mph42%30.39 "Hg10 mi
7:50 pm39 °FClear.12 mph42%30.39 "Hg10 mi
7:20 pm39 °FClear.10 mph42%30.39 "Hg10 mi
6:50 pm41 °FClear.6 mph39%30.39 "Hg10 mi
6:20 pm41 °FClear.8 mph39%30.39 "Hg10 mi
5:50 pm43 °FClear.8 mph36%30.39 "Hg10 mi
5:20 pm45 °FClear.8 mph31%30.39 "Hg10 mi
4:50 pm45 °FClear.8 mph31%30.39 "Hg10 mi
4:20 pm50 °FSunny.10 mph37%30.36 "Hg10 mi
3:50 pm50 °FSunny.10 mph37%30.36 "Hg10 mi
3:20 pm48 °FSunny.12 mph32%30.36 "Hg10 mi
2:50 pm48 °FSunny.10 mph32%30.36 "Hg10 mi
2:20 pm48 °FSunny.13 mph29%30.36 "Hg10 mi
1:50 pm48 °FSunny.13 mph29%30.36 "Hg10 mi
1:20 pm50 °FSunny.14 mph37%30.39 "Hg10 mi
12:50 pm48 °FSunny.15 mph40%30.39 "Hg10 mi
12:20 pm48 °FSunny.16 mph37%30.39 "Hg10 mi
11:20 am46 °FSunny.17 mph40%30.39 "Hg10 mi
10:50 am46 °FSunny.17 mph40%30.39 "Hg10 mi
10:20 am43 °FSunny.13 mph46%30.39 "Hg10 mi
9:50 am43 °FSunny.14 mph46%30.39 "Hg10 mi
9:20 am41 °FSunny.10 mph49%30.36 "Hg10 mi
8:50 am41 °FSunny.8 mph49%30.36 "Hg10 mi
8:20 am34 °FSunny.5 mph70%30.36 "Hg10 mi
7:50 am32 °FSunny.5 mph69%30.36 "Hg10 mi
Weather by CustomWeather, © 2016

See weather overviewHow to use our weather pages